CAPE
0 0 0 0 0 1184 1727 1435 1542 1565 1190 1299 913 1320 766 856 681 665 522 494 452 234 232 115 228 52 64 45 44 56 245 599
0 0 0 0 0 1502 1716 1596 1496 1700 1399 1028 1374 1102 1200 1143 899 802 748 495 342 346 233 278 112 41 56 65 119 90 151 653
0 0 0 0 0 29 1780 1768 1629 1838 1581 1308 1492 1145 1334 1033 1256 1034 997 603 461 475 246 212 105 67 123 84 102 96 163 737
0 0 0 0 0 135 1847 1807 1867 1900 1754 1741 1325 1448 1257 1286 1271 1319 1216 783 675 467 337 312 157 70 126 127 84 79 102 430
0 0 0 0 19 83 236 2125 2009 1940 1958 1767 1589 1504 1114 1423 1195 1350 1307 1028 797 710 462 285 281 104 119 176 85 82 189 306
0 0 0 0 0 0 144 2212 2338 2038 2002 1833 1793 1543 1694 1553 1349 1219 1552 1429 1074 1073 724 316 547 160 151 101 110 100 139 254
18 0 0 0 0 0 13 2118 2344 2278 2080 1972 1704 1717 1620 1525 1552 1615 1630 1471 1532 1205 1159 756 258 528 145 315 265 182 95 185
0 1 2 0 0 0 0 2306 2128 2562 2241 2008 1807 1874 1779 1760 1575 1652 1522 1360 1334 1402 1456 1082 725 481 392 232 293 481 329 255
0 0 0 0 0 3 3 2024 2123 2502 2366 1960 1745 1803 2093 1830 1935 1674 1514 1232 1139 1444 1620 1502 1076 606 741 362 560 412 922 765
0 4 24 5 0 0 9 74 2173 2177 2333 2321 1993 1701 2225 2185 2040 1832 1549 1397 1163 965 1713 1665 1539 1159 699 721 428 915 822 1034
0 18 23 18 0 0 0 14 189 2009 2116 2464 2449 2326 2173 2451 2108 1921 1580 1380 1341 1156 1325 1780 1692 1482 1057 844 760 700 1091 1178
0 0 8 13 13 0 5 8 30 1822 2325 2271 2366 2289 2440 2322 2419 2009 1689 1467 1372 1398 1186 2001 1735 1735 1515 1104 954 826 905 1160
0 0 30 105 84 44 8 116 278 1030 2460 2189 2619 2733 2582 2381 2346 2257 2084 1821 1504 1534 1438 1772 2023 1822 1736 1611 1305 1071 855 973
0 20 36 87 117 66 0 24 100 176 597 2318 2297 2658 2587 2581 2430 2284 2228 2146 1828 1560 1729 1591 2079 2079 1945 1800 1700 1422 1166 1003
0 59 27 50 60 62 0 0 75 102 28 1014 1800 2425 2533 2729 2651 2534 2401 2414 2184 2000 1816 1918 1900 2216 2105 2045 1866 1699 1566 1269
0 0 0 17 26 41 53 0 25 76 76 77 950 964 1914 2709 2879 2842 2708 2519 2468 2166 2021 1951 1939 2033 2119 2152 2100 1905 1708 1568
0 0 0 0 0 0 59 37 17 71 58 16 186 915 1242 1630 2546 2459 2512 2617 2502 2473 2221 1963 2073 1905 1992 2091 2091 2004 1931 1681
0 0 0 0 0 15 46 40 20 57 58 15 0 466 905 1235 1916 2038 2242 2803 2906 2776 2603 2359 2148 2175 2147 2163 2143 2077 1993 1833
0 0 0 0 0 0 4 3 0 5 9 15 0 29 517 924 1426 1767 1875 2446 2758 2855 2768 2800 2727 2524 2499 2520 2399 2271 2200 2123
CIN
-0 -0 -0 -0 -0 -57 -80 -89 -60 -60 -80 -29 -54 -21 -70 -84 -135 -177 -252 -213 -204 -240 -193 -253 -195 -318 -338 -338 -300 -239 -98 -28
-0 -0 -0 -0 -0 -54 -83 -95 -72 -45 -41 -42 -15 -42 -55 -45 -96 -133 -218 -219 -222 -211 -195 -190 -245 -318 -351 -353 -252 -230 -170 -57
-0 -0 -0 -0 -0 -83 -64 -84 -93 -44 -53 -70 -16 -60 -39 -66 -26 -70 -136 -207 -192 -180 -208 -192 -268 -272 -272 -329 -283 -255 -172 -54
-0 -0 -0 -0 -0 -117 -38 -68 -83 -52 -53 -16 -19 -9 -9 -8 -8 -16 -64 -187 -185 -200 -235 -191 -266 -282 -271 -303 -318 -299 -234 -98
-0 -0 -0 -0 -59 -105 -79 -50 -66 -59 -34 -28 -28 -17 -41 -24 -65 -33 -58 -157 -183 -164 -207 -218 -233 -300 -263 -281 -326 -301 -199 -133
-0 -0 -0 -0 -0 -0 -102 -37 -49 -61 -46 -28 -28 -18 -13 -40 -48 -51 -25 -57 -140 -104 -140 -219 -154 -300 -255 -309 -313 -285 -259 -174
-164 -0 -0 -0 -0 -0 -138 -42 -35 -55 -61 -49 -29 -27 -24 -40 -28 -30 -38 -67 -67 -117 -92 -149 -242 -180 -304 -246 -253 -285 -287 -222
-0 -54 -129 -0 -0 -0 -0 -24 -33 -51 -70 -61 -33 -19 -28 -43 -55 -68 -89 -101 -108 -116 -73 -129 -185 -209 -257 -265 -258 -197 -244 -216
-0 -0 -0 -0 -0 -9 -18 -7 -32 -37 -63 -60 -69 -28 -11 -21 -26 -69 -120 -182 -209 -149 -84 -80 -147 -197 -164 -265 -174 -223 -118 -132
-0 -78 -78 -91 -0 -0 -216 -9 -16 -32 -40 -37 -50 -57 -6 -17 -17 -60 -140 -177 -221 -209 -83 -80 -93 -138 -206 -186 -248 -145 -162 -142
-0 -44 -51 -63 -0 -0 -0 -124 -3 -16 -33 -33 -20 -21 -8 -8 -15 -40 -110 -184 -198 -226 -140 -78 -76 -95 -148 -167 -188 -203 -120 -122
-0 -0 -125 -81 -104 -0 -76 -117 -66 -15 -28 -27 -34 -15 -9 -13 -6 -17 -73 -146 -180 -161 -216 -81 -104 -85 -89 -141 -185 -191 -174 -129
-0 -0 -75 -67 -51 -68 -152 -174 -130 -33 -29 -30 -17 -15 -6 -7 -7 -12 -29 -91 -151 -138 -184 -115 -93 -94 -91 -100 -152 -175 -208 -189
-0 -2 -18 -42 -17 -39 -0 -140 -88 -65 -93 -33 -38 -20 -19 -7 -5 -6 -23 -34 -75 -142 -114 -147 -99 -122 -111 -122 -122 -151 -193 -240
-0 -1 -4 -1 -2 -61 -0 -0 -56 -54 -154 -12 -20 -26 -22 -9 -12 -2 -4 -25 -40 -85 -133 -130 -149 -126 -146 -135 -130 -133 -145 -183
-0 -8 -0 -0 -3 -46 -42 -4 -28 -41 -144 -165 -0 -5 -9 -11 -2 -2 -2 -3 -18 -62 -90 -121 -123 -119 -119 -138 -135 -168 -183 -184
-0 -0 -0 -0 -0 -0 -16 -6 -8 -14 -23 -166 -46 -1 -13 -3 -6 -8 -4 -3 -6 -19 -55 -99 -105 -130 -151 -174 -176 -166 -180 -183
-0 -0 -0 -0 -0 -39 -16 -5 -12 -1 -15 -56 -0 -2 -0 -0 -0 -2 -7 -3 -2 -11 -32 -59 -101 -96 -113 -141 -160 -166 -177 -183
-0 -0 -0 -0 -0 -0 -73 -0 -0 -3 -10 -58 -0 -10 -0 -0 -0 -0 -0 -6 -4 -7 -17 -26 -37 -71 -72 -68 -85 -97 -109 -125
Wind_Speed
nan nan nan nan nan 52 47 41 40 35 35 29 34 33 30 29 27 25 26 21 17 17 16 20 18 nan nan nan nan nan 11 9
nan nan nan nan nan 54 54 44 42 41 40 33 27 31 30 29 28 26 26 23 19 21 16 20 19 nan nan nan 16 nan 9 10
nan nan nan nan nan nan 55 49 44 43 40 35 26 32 33 31 33 28 26 26 23 22 18 19 20 nan 23 nan 15 nan 14 12
nan nan nan nan nan 58 60 54 48 45 41 37 32 35 40 38 34 32 28 28 25 19 21 20 23 nan 23 23 nan nan 16 12
nan nan nan nan nan nan 66 61 52 48 46 38 34 31 33 30 31 33 30 26 28 23 24 19 23 24 22 25 nan nan 22 15
nan nan nan nan nan nan 63 66 58 51 48 41 40 34 34 32 32 32 33 29 30 26 24 25 21 23 24 22 26 25 21 22
nan nan nan nan nan nan nan 67 66 57 49 46 41 35 33 33 32 33 34 33 33 27 23 25 23 23 25 24 24 24 nan 21
nan nan nan nan nan nan nan 65 68 64 52 49 44 38 34 31 33 35 36 35 34 24 22 22 27 23 23 24 23 21 21 19
nan nan nan nan nan nan nan 60 67 63 55 50 47 44 39 36 33 37 38 35 29 28 25 23 23 26 24 25 23 21 18 17
nan nan nan nan nan nan nan nan 61 59 58 57 51 46 36 38 31 37 37 34 34 27 26 21 22 23 24 25 25 21 18 18
nan nan nan nan nan nan nan nan 67 53 58 59 57 49 40 41 35 35 37 34 32 32 21 23 20 21 24 25 23 22 20 18
nan nan nan nan nan nan nan nan nan 65 59 60 60 51 47 44 40 34 37 35 33 33 27 22 22 19 21 23 20 21 19 18
nan nan nan 63 nan nan nan 84 95 77 65 59 65 61 54 49 40 37 39 35 35 33 32 28 26 25 27 22 22 22 21 19
nan nan nan nan 61 nan nan nan 99 104 89 63 62 64 57 54 44 39 40 39 37 36 36 33 31 29 30 27 24 23 22 20
nan nan nan nan nan nan nan nan nan 99 nan 93 69 62 58 54 49 45 43 43 41 39 37 38 35 32 33 32 29 26 26 23
nan nan nan nan nan nan nan nan nan nan nan nan 91 87 66 60 58 57 50 47 46 43 43 42 41 39 38 35 33 31 31 28
nan nan nan nan nan nan nan nan nan nan nan nan 95 89 90 72 63 63 58 53 50 50 49 45 46 43 41 38 35 35 32 30
nan nan nan nan nan nan nan nan nan nan nan nan nan 95 89 87 85 65 60 57 55 52 51 50 45 41 44 42 36 34 31 30
nan nan nan nan nan nan nan nan nan nan nan nan nan nan 97 92 86 83 79 67 66 63 59 53 51 45 48 43 33 32 38 37
Wind_Direction
nan nan nan nan nan 248 257 255 257 260 257 250 250 240 241 245 252 256 275 268 260 266 250 262 250 nan nan nan nan nan 269 282
nan nan nan nan nan 245 257 254 255 252 249 258 259 251 248 246 253 259 272 271 272 272 253 258 258 nan nan nan 253 nan 264 281
nan nan nan nan nan nan 253 257 255 253 250 255 250 249 239 241 244 252 261 272 271 264 268 253 265 nan 255 nan 253 nan 258 277
nan nan nan nan nan 228 249 252 253 253 257 251 250 242 233 239 241 248 255 270 272 268 273 251 263 nan 251 254 nan nan 266 260
nan nan nan nan nan nan 228 250 249 250 254 253 260 252 251 253 255 257 256 266 272 271 269 264 257 266 258 255 nan nan 257 268
nan nan nan nan nan nan 227 245 247 246 251 252 248 254 246 243 246 255 256 256 265 268 265 271 253 268 268 268 264 266 257 263
nan nan nan nan nan nan nan 237 245 243 241 251 251 255 251 248 251 252 257 251 254 268 269 271 273 258 273 265 265 269 nan 265
nan nan nan nan nan nan nan 236 239 243 236 243 248 250 259 249 260 254 259 251 252 261 271 273 271 272 271 272 271 267 278 276
nan nan nan nan nan nan nan 230 241 244 239 239 241 244 240 246 261 254 253 249 250 253 260 261 272 275 266 268 259 256 264 275
nan nan nan nan nan nan nan nan 246 238 242 236 237 241 240 244 255 258 253 249 245 253 258 265 267 268 275 270 266 265 267 274
nan nan nan nan nan nan nan nan 208 260 233 235 233 236 242 240 249 253 253 250 251 256 247 257 266 273 276 279 273 274 277 274
nan nan nan nan nan nan nan nan nan 221 226 229 234 232 234 239 239 245 245 246 246 246 253 246 265 271 276 278 282 279 283 279
nan nan nan 211 nan nan nan 210 213 229 226 222 229 231 235 237 235 237 237 239 241 242 247 248 252 261 268 276 282 281 286 291
nan nan nan nan 207 nan nan nan 213 215 216 223 223 227 231 233 231 230 235 234 234 240 241 251 254 264 267 274 274 278 280 287
nan nan nan nan nan nan nan nan nan 215 nan 213 213 229 230 234 235 235 227 238 236 238 244 248 253 258 266 270 272 270 273 273
nan nan nan nan nan nan nan nan nan nan nan nan 213 212 214 226 231 236 230 230 235 239 241 246 248 253 256 266 270 278 282 276
nan nan nan nan nan nan nan nan nan nan nan nan 217 215 214 218 225 231 230 227 230 236 241 245 249 249 260 270 272 268 276 274
nan nan nan nan nan nan nan nan nan nan nan nan nan 219 217 219 220 226 237 236 231 232 237 241 244 247 256 267 274 266 269 269
nan nan nan nan nan nan nan nan nan nan nan nan nan nan 220 217 219 223 222 238 241 232 234 230 236 242 253 261 268 268 268 268